Starlink 5464

operational
NORAD ID: 54758 Int'l Des: 2022-175 Owner: SPXS Country: US Constellation: starlink
LEOCIRCULAR

About Starlink 5464

Description loading...

Live Position

Loading 3D Globe...

Upcoming Passes

Altitude History

Altitude vs Time

uPlot chart will show altitude changes over time

Two-Line Element Set

1 54758U 22175A 25303.17761070 -.00000212 00000-0 47652-5 0 9993
2 54758 53.2171 265.2059 0001050 63.6271 296.4829 15.08835259160283
Epoch: Oct 30, 2025 • Age: 21 hours

Current Status

Altitude 543.1 km
Velocity 7.60 km/s
Sub-Earth Point 42.00°N, 113.96°W
Launch Date Dec 17, 2022
Age 2.8 years
Type internet

Technical Details

Classification Payload
Mass 305.00 kg
Dry Mass 290.00 kg
Total Mass 305.00 kg
Length 0.20 m
Diameter 2.80 m
Span 9.00 m
Shape Box + pan
Manufacturer SPXS
Bus Type Starlink
Phase Status In Orbit
Owner/State SPXS/US

Large Constellations

Loading constellations...